This is the latest recevied weather packets stored in our database for station/object N2PUI. If no packets are shown the sender has not sent any weather packets the latest 10 day(s).
| Time | Temp. | Humidity | Pressure | Rain* | Wind** | Luminosity | Snow |
|---|---|---|---|---|---|---|---|
| 1778023416 | 17.22° C | 84% | 1007.8 hPa | 0 mm | - | 24 W/m² | - |
| 1778023112 | 17.22° C | 84% | 1007.8 hPa | 0 mm | - | 30 W/m² | - |
| 1778022810 | 17.22° C | 83% | 1007.6 hPa | 1.78 mm | - | 30 W/m² | - |
| 1778022508 | 17.22° C | 83% | 1007.6 hPa | 1.78 mm | - | 23 W/m² | - |
| 1778022205 | 17.22° C | 82% | 1007.3 hPa | 0 mm | - | 18 W/m² | - |
| 1778021901 | 17.78° C | 81% | 1007.4 hPa | 0 mm | - | 19 W/m² | - |
| 1778021599 | 17.78° C | 80% | 1007.6 hPa | 0 mm | - | 17 W/m² | - |
| 1778021294 | 17.78° C | 80% | 1007.8 hPa | 0 mm | - | 12 W/m² | - |
| 1778020992 | 17.78° C | 80% | 1008 hPa | 0 mm | - | 7 W/m² | - |
| 1778020689 | 17.78° C | 81% | 1007.9 hPa | 1.27 mm | - | 12 W/m² | - |
| 1778020386 | 18.33° C | 81% | 1007.9 hPa | 1.27 mm | - | 17 W/m² | - |
| 1778020081 | 18.33° C | 79% | 1007.5 hPa | 0 mm | - | 16 W/m² | - |
| 1778019778 | 18.33° C | 78% | 1007.5 hPa | 0 mm | - | 10 W/m² | - |
| 1778019475 | 18.89° C | 78% | 1007.3 hPa | 0 mm | - | 12 W/m² | - |
| 1778019172 | 18.33° C | 77% | 1006.8 hPa | 0 mm | - | 22 W/m² | - |
| 1778018868 | 18.89° C | 77% | 1007.4 hPa | 0 mm | - | 29 W/m² | - |
| 1778018566 | 18.89° C | 77% | 1006.8 hPa | 0 mm | - | 29 W/m² | - |
| 1778018264 | 18.89° C | 77% | 1006.9 hPa | 0 mm | - | 38 W/m² | - |
| 1778017961 | 18.89° C | 76% | 1007.2 hPa | 0 mm | - | 72 W/m² | - |
| 1778017659 | 18.89° C | 77% | 1006.9 hPa | 0 mm | - | 127 W/m² | - |
| 1778017356 | 18.89° C | 77% | 1006.8 hPa | 0 mm | - | 196 W/m² | - |
| 1778017053 | 18.33° C | 76% | 1006.8 hPa | 0 mm | - | 203 W/m² | - |
| 1778016750 | 18.33° C | 79% | 1006.7 hPa | 0 mm | - | 206 W/m² | - |
| 1778016446 | 17.78° C | 81% | 1006.4 hPa | 0 mm | - | 269 W/m² | - |
| 1778016144 | 17.22° C | 82% | 1006.4 hPa | 0 mm | - | 314 W/m² | - |
* Rain latest hour (hover to see other rain measurements)
** Current wind speed in m/s (hover to see current wind gust speed)